Satellite: NOAA-14
Catalog number: 23455
Epoch time: 08318.45508558
Element set: 386
Inclination: 098.9347 deg
RA of node: 030.6750 deg
Eccentricity: 0.0010269
Arg of perigee: 083.9043 deg
Mean anomaly: 276.3293 deg
Mean motion: 14.13752549 rev/day
Decay rate: 7.2e-07 rev/day^2
Epoch rev: 71544
Checksum: 321
Satellite: NOAA-15
Catalog number: 25338
Epoch time: 08318.59422502
Element set: 696
Inclination: 098.5669 deg
RA of node: 306.7544 deg
Eccentricity: 0.0010236
Arg of perigee: 331.5921 deg
Mean anomaly: 028.4712 deg
Mean motion: 14.24732222 rev/day
Decay rate: 1.8e-07 rev/day^2
Epoch rev: 54607
Checksum: 300
Satellite: RESURS
Catalog number: 25394
Epoch time: 08318.68505231
Element set: 69
Inclination: 098.3691 deg
RA of node: 355.6958 deg
Eccentricity: 0.0002120
Arg of perigee: 098.1142 deg
Mean anomaly: 262.0278 deg
Mean motion: 14.24175063 rev/day
Decay rate: -7.0e-08 rev/day^2
Epoch rev: 53772
Checksum: 298
Satellite: FENGYUN1
Catalog number: 25730
Epoch time: 08317.88661129
Element set: 613
Inclination: 098.7384 deg
RA of node: 288.7424 deg
Eccentricity: 0.0021593
Arg of perigee: 102.7029 deg
Mean anomaly: 257.6548 deg
Mean motion: 14.07852671 rev/day
Decay rate: 8.79e-06 rev/day^2
Epoch rev: 48988
Checksum: 351
Satellite: OKEAN-0
Catalog number: 25860
Epoch time: 08317.89706701
Element set: 522
Inclination: 097.7648 deg
RA of node: 301.9822 deg
Eccentricity: 0.0001383
Arg of perigee: 095.9743 deg
Mean anomaly: 264.1627 deg
Mean motion: 14.73544264 rev/day
Decay rate: 5.9e-07 rev/day^2
Epoch rev: 50129
Checksum: 315
Satellite: NOAA-16
Catalog number: 26536
Epoch time: 08318.59994414
Element set: 169
Inclination: 099.1692 deg
RA of node: 311.1493 deg
Eccentricity: 0.0010659
Arg of perigee: 162.4697 deg
Mean anomaly: 197.6830 deg
Mean motion: 14.12503857 rev/day
Decay rate: 2.82e-06 rev/day^2
Epoch rev: 41986
Checksum: 344
Satellite: NOAA-17
Catalog number: 27453
Epoch time: 08318.50544873
Element set: 172
Inclination: 098.5181 deg
RA of node: 018.6735 deg
Eccentricity: 0.0012235
Arg of perigee: 037.3497 deg
Mean anomaly: 322.8575 deg
Mean motion: 14.24016999 rev/day
Decay rate: 8.8e-07 rev/day^2
Epoch rev: 33205
Checksum: 320
Satellite: NOAA-18
Catalog number: 28654
Epoch time: 08318.44258958
Element set: 659
Inclination: 098.8836 deg
RA of node: 257.6284 deg
Eccentricity: 0.0013497
Arg of perigee: 252.0936 deg
Mean anomaly: 107.8750 deg
Mean motion: 14.11208837 rev/day
Decay rate: 8.0e-08 rev/day^2
Epoch rev: 17952
Checksum: 353
/EX
SB KEPS @ AMSAT $ORB08318.M
Orbital Elements 08318.MISC
HR AMSAT ORBITAL ELEMENTS FOR MANNED AND MISCELLANEOUS SATELLITES
FROM WA5QGD FORT WORTH,TX November 13, 2008
Send Subscribe/unsubscribe to KEPS at
http://www.amsat.org/mailman/listinfo/keps
BID: ORB08318.M
TO ALL RADIO AMATEURS BT
Satellite: HUBBLE
Catalog number: 20580
Epoch time: 08317.67866537
Element set: 261
Inclination: 028.4682 deg
RA of node: 074.6869 deg
Eccentricity: 0.0003918
Arg of perigee: 162.4520 deg
Mean anomaly: 197.6204 deg
Mean motion: 15.00427267 rev/day
Decay rate: 3.59e-06 rev/day^2
Epoch rev: 81730
Checksum: 310
Satellite: PO-34
Catalog number: 25520
Epoch time: 08318.90842479
Element set: 121
Inclination: 028.4611 deg
RA of node: 256.3682 deg
Eccentricity: 0.0005383
Arg of perigee: 119.4091 deg
Mean anomaly: 240.7041 deg
Mean motion: 15.17258018 rev/day
Decay rate: 4.98e-06 rev/day^2
Epoch rev: 55592
Checksum: 299
Satellite: ISS
Catalog number: 25544
Epoch time: 08318.67148292
Element set: 645
Inclination: 051.6436 deg
RA of node: 330.0973 deg
Eccentricity: 0.0003809
Arg of perigee: 346.3452 deg
Mean anomaly: 121.7147 deg
Mean motion: 15.72579683 rev/day
Decay rate: 1.0913e-04 rev/day^2
Epoch rev: 57205
Checksum: 307
Satellite: CO-58
Catalog number: 28895
Epoch time: 08318.41859607
Element set: 168
Inclination: 098.0807 deg
RA of node: 208.7543 deg
Eccentricity: 0.0016948
Arg of perigee: 305.0566 deg
Mean anomaly: 054.9030 deg
Mean motion: 14.59714428 rev/day
Decay rate: 1.49e-06 rev/day^2
Epoch rev: 16225
Checksum: 340
Satellite: FALCON
Catalog number: 30776
Epoch time: 08318.23492545
Element set: 437
Inclination: 035.4340 deg
RA of node: 329.4853 deg
Eccentricity: 0.0001115
Arg of perigee: 254.5624 deg
Mean anomaly: 105.4968 deg
Mean motion: 15.03101047 rev/day
Decay rate: 4.63e-06 rev/day^2
Epoch rev: 9258
Checksum: 281
Satellite: MAST
Catalog number: 31126
Epoch time: 08318.63034323
Element set: 460
Inclination: 098.0215 deg
RA of node: 016.9496 deg
Eccentricity: 0.0093895
Arg of perigee: 228.3673 deg
Mean anomaly: 130.9457 deg
Mean motion: 14.53457801 rev/day
Decay rate: 1.40e-06 rev/day^2
Epoch rev: 8372
Checksum: 293
Satellite: CAPE1
Catalog number: 31130
Epoch time: 08318.45506467
Element set: 452
Inclination: 098.0231 deg
RA of node: 015.4520 deg
Eccentricity: 0.0102006
Arg of perigee: 232.7299 deg
Mean anomaly: 126.4568 deg
Mean motion: 14.52007742 rev/day
Decay rate: 1.96e-06 rev/day^2
Epoch rev: 8338
Checksum: 271
Satellite: COMPASS
Catalog number: 32787
Epoch time: 08318.72399283
Element set: 199
Inclination: 097.9720 deg
RA of node: 018.0467 deg
Eccentricity: 0.0016250
Arg of perigee: 016.2942 deg
Mean anomaly: 343.8779 deg
Mean motion: 14.81495165 rev/day
Decay rate: 1.73e-06 rev/day^2
Epoch rev: 2954
Checksum: 332
Satellite: AAUSAT2
Catalog number: 32788
Epoch time: 08318.84425797
Element set: 199
Inclination: 097.9738 deg
RA of node: 018.1938 deg
Eccentricity: 0.0015810
Arg of perigee: 018.8039 deg
Mean anomaly: 341.3708 deg
Mean motion: 14.81608214 rev/day
Decay rate: 3.2e-07 rev/day^2
Epoch rev: 2956
Checksum: 330
Satellite: DO-64
Catalog number: 32789
Epoch time: 08318.85900905
Element set: 210
Inclination: 097.9753 deg
RA of node: 018.2598 deg
Eccentricity: 0.0015932
Arg of perigee: 015.8306 deg
Mean anomaly: 344.3394 deg
Mean motion: 14.81528415 rev/day
Decay rate: 3.41e-06 rev/day^2
Epoch rev: 2956
Checksum: 323
Satellite: CO-66
Catalog number: 32791
Epoch time: 08318.87844734
Element set: 193
Inclination: 097.9759 deg
RA of node: 018.2250 deg
Eccentricity: 0.0016511
Arg of perigee: 014.1426 deg
Mean anomaly: 346.0227 deg
Mean motion: 14.81343694 rev/day
Decay rate: 3.65e-06 rev/day^2
Epoch rev: 2953
Checksum: 318
Satellite: RS-30
Catalog number: 32953
Epoch time: 08317.75278079
Element set: 156
Inclination: 082.5048 deg
RA of node: 031.1984 deg
Eccentricity: 0.0017848
Arg of perigee: 291.6457 deg
Mean anomaly: 068.2724 deg
Mean motion: 12.42998120 rev/day
Decay rate: 1.0e-07 rev/day^2
Epoch rev: 2150
Checksum: 303
/EX
More information about the Keps
mailing list